Date String (YYYY-MM-DD hh:mm:ss) UTC,Instrument flags,Ambient pressure (hPa),Sample flow (lpm),Bypass flow (lpm),Sample temperature (°C),Ambient temperature (°C),ASC tube jacket temperature (°C),LED temperature (°C),Box temperature (°C),Sample RH (%),Span deviation,Mass concentration (μg/m³),Mass concentration (μg/m³),Mass concentration (μg/m³)
DateTimeUTC,F1_M11,P_M11,Q1_M11,Q2_M11,T1_M11,T2_M11,T3_M11,T4_M11,T5_M11,U1_M11,ZSPAN_M11,X2_M11,X0_M11,X1_M11
2023-01-15 12:00:00,,0811.6,5.01,0.00,21.7,20.2,00.0,30.7,23.4,14.0,0000.0,0000.82,0001.13,0000.69
2023-01-15 12:01:00,,0811.6,5.00,0.00,21.7,20.2,00.0,30.7,23.4,14.2,0000.0,0000.88,0001.19,0000.75
2023-01-15 12:02:00,,0811.6,5.01,0.00,21.7,20.1,00.0,30.6,23.3,14.3,0000.0,0001.12,0001.43,0000.98
2023-01-15 12:03:00,,0811.6,4.98,0.00,21.6,20.1,00.0,30.6,23.3,14.3,0000.0,0001.46,0001.80,0001.29
2023-01-15 12:04:00,,0811.5,5.03,0.00,21.6,20.1,00.0,30.6,23.3,14.2,0000.0,0001.81,0002.22,0001.61
2023-01-15 12:05:00,,0811.6,4.98,0.00,21.7,20.2,00.0,30.6,23.4,14.3,0000.0,0002.15,0002.57,0001.93
2023-01-15 12:06:00,,0811.6,5.01,0.00,21.7,20.2,00.0,30.6,23.4,14.3,0000.0,0002.53,0003.01,0002.29
2023-01-15 12:07:00,,0811.6,4.99,0.00,21.7,20.2,00.0,30.6,23.4,14.3,0000.0,0002.86,0003.41,0002.59
2023-01-15 12:08:00,,0811.7,5.00,0.00,21.7,20.3,00.0,30.6,23.4,14.3,0000.0,0003.17,0003.78,0002.93
2023-01-15 12:09:00,,0811.7,4.99,0.00,21.7,20.4,00.0,30.6,23.4,14.3,0000.0,0003.37,0004.15,0003.21
2023-01-15 12:10:00,,0811.7,4.99,0.00,21.7,20.4,00.0,30.6,23.5,14.3,0000.0,0003.55,0004.51,0003.40
2023-01-15 12:11:00,,0811.8,5.00,0.00,21.7,20.5,00.0,30.6,23.5,14.3,0000.0,0003.72,0005.19,0003.56
2023-01-15 12:12:00,,0811.8,5.00,0.00,21.7,20.5,00.0,30.6,23.5,14.3,0000.0,0003.82,0005.42,0003.68
2023-01-15 12:13:00,,0811.9,5.00,0.00,21.7,20.5,00.0,30.6,23.5,14.4,0000.0,0003.81,0005.38,0003.67
2023-01-15 12:14:00,,0811.9,4.99,0.00,21.8,20.5,00.0,30.6,23.5,14.7,0000.0,0003.72,0005.48,0003.59
2023-01-15 12:15:00,,0811.9,5.01,0.00,21.7,20.4,00.0,30.6,23.5,15.0,0000.0,0003.65,0005.78,0003.52
2023-01-15 12:16:00,,0811.9,5.00,0.00,21.8,20.6,00.0,30.6,23.5,15.2,0000.0,0003.63,0005.76,0003.49
2023-01-15 12:17:00,,0811.9,5.01,0.00,21.8,21.3,00.0,30.6,23.7,15.2,0000.0,0003.64,0005.71,0003.50
2023-01-15 12:18:00,,0811.8,5.00,0.00,22.0,22.3,00.0,30.6,24.0,15.1,0000.0,0003.73,0005.97,0003.61
2023-01-15 12:19:00,,0811.7,4.99,0.00,22.1,22.6,00.0,30.7,24.2,15.0,0000.0,0003.80,0006.34,0003.69
2023-01-15 12:20:00,,0811.7,4.98,0.00,22.1,22.4,00.0,30.7,24.2,14.9,0000.0,0003.87,0006.48,0003.75
2023-01-15 12:21:00,,0811.7,4.99,0.00,22.2,22.1,00.0,30.8,24.2,14.8,0000.0,0003.95,0007.07,0003.82
2023-01-15 12:22:00,,0811.7,5.00,0.00,22.2,21.9,00.0,30.8,24.2,14.6,0000.0,0004.03,0007.21,0003.90
2023-01-15 12:23:00,,0811.7,5.00,0.00,22.2,21.7,00.0,30.9,24.2,14.5,0000.0,0004.11,0007.33,0003.98
2023-01-15 12:24:00,,0811.7,4.99,0.00,22.3,21.6,00.0,30.9,24.2,14.6,0000.0,0004.27,0007.62,0004.12
2023-01-15 12:25:00,,0811.7,5.00,0.00,22.3,21.5,00.0,30.9,24.2,14.5,0000.0,0004.46,0007.77,0004.29
2023-01-15 12:26:00,,0811.7,4.98,0.00,22.3,21.4,00.0,31.0,24.2,14.6,0000.0,0004.59,0007.61,0004.43
2023-01-15 12:27:00,,0811.7,4.98,0.00,22.3,21.4,00.0,31.0,24.2,14.5,0000.0,0004.68,0007.69,0004.53
2023-01-15 12:28:00,,0811.7,5.02,0.00,22.3,21.4,00.0,31.0,24.2,14.5,0000.0,0004.73,0007.76,0004.57
2023-01-15 12:29:00,,0811.7,5.00,0.00,22.3,21.4,00.0,31.0,24.2,14.5,0000.0,0004.71,0007.72,0004.54
2023-01-15 12:30:00,,0811.7,5.00,0.00,22.3,21.3,00.0,31.1,24.2,14.4,0000.0,0004.68,0007.74,0004.51
2023-01-15 12:31:00,,0811.7,5.00,0.00,22.4,21.3,00.0,31.1,24.2,14.4,0000.0,0004.67,0007.77,0004.48
2023-01-15 12:32:00,,0811.8,4.99,0.00,22.4,21.3,00.0,31.1,24.2,14.4,0000.0,0004.65,0007.57,0004.45
2023-01-15 12:33:00,,0811.8,4.99,0.00,22.4,21.3,00.0,31.1,24.2,14.3,0000.0,0004.62,0007.44,0004.42
2023-01-15 12:34:00,,0811.9,4.99,0.00,22.4,21.3,00.0,31.1,24.3,14.3,0000.0,0004.63,0007.49,0004.41
2023-01-15 12:35:00,,0811.8,4.99,0.00,22.4,21.3,00.0,31.1,24.3,14.3,0000.0,0004.61,0007.38,0004.40
2023-01-15 12:36:00,,0811.9,5.00,0.00,22.4,21.4,00.0,31.1,24.3,14.4,0000.0,0004.60,0007.29,0004.40
2023-01-15 12:37:00,,0812.0,5.00,0.00,22.4,21.3,00.0,31.2,24.2,14.5,0000.0,0004.60,0007.26,0004.41
2023-01-15 12:38:00,,0811.9,5.00,0.00,22.4,21.3,00.0,31.2,24.2,14.6,0000.0,0004.64,0007.34,0004.44
2023-01-15 12:39:00,,0811.9,5.01,0.00,22.4,21.3,00.0,31.2,24.2,14.6,0000.0,0004.64,0007.36,0004.47
2023-01-15 12:40:00,,0811.8,5.01,0.00,22.4,21.3,00.0,31.2,24.2,14.6,0000.0,0004.68,0007.36,0004.50
2023-01-15 12:41:00,,0811.9,5.02,0.00,22.4,21.3,00.0,31.2,24.2,14.5,0000.0,0004.74,0007.19,0004.56
2023-01-15 12:42:00,,0811.9,4.99,0.00,22.4,21.3,00.0,31.2,24.3,14.5,0000.0,0004.76,0007.18,0004.59
2023-01-15 12:43:00,,0811.9,4.99,0.00,22.4,21.3,00.0,31.2,24.3,14.6,0000.0,0004.80,0007.16,0004.61
2023-01-15 12:44:00,,0811.8,5.00,0.00,22.4,21.3,00.0,31.2,24.3,14.6,0000.0,0004.84,0007.19,0004.66
2023-01-15 12:45:00,,0811.8,4.99,0.00,22.5,21.3,00.0,31.2,24.3,14.7,0000.0,0004.86,0007.17,0004.70
2023-01-15 12:46:00,,0811.9,5.00,0.00,22.5,21.3,00.0,31.2,24.3,15.0,0000.0,0004.94,0007.39,0004.77
2023-01-15 12:47:00,,0811.8,4.99,0.00,22.5,21.4,00.0,31.2,24.3,15.2,0000.0,0005.05,0007.54,0004.86
2023-01-15 12:48:00,,0811.8,4.99,0.00,22.5,21.3,00.0,31.3,24.3,15.3,0000.0,0005.22,0007.79,0005.00
2023-01-15 12:49:00,,0811.8,5.01,0.00,22.5,21.2,00.0,31.3,24.3,14.7,0000.0,0005.27,0008.06,0005.04
2023-01-15 12:50:00,,0811.9,5.00,0.00,22.5,21.1,00.0,31.3,24.3,14.4,0000.0,0005.26,0008.44,0005.02
2023-01-15 12:51:00,,0811.9,5.00,0.00,22.4,21.0,00.0,31.3,24.2,14.3,0000.0,0005.20,0008.38,0004.94
2023-01-15 12:52:00,,0811.9,5.00,0.00,22.4,21.0,00.0,31.3,24.2,14.3,0000.0,0005.11,0008.34,0004.84
2023-01-15 12:53:00,,0811.8,5.01,0.00,22.4,21.0,00.0,31.3,24.2,14.2,0000.0,0004.99,0008.36,0004.71
2023-01-15 12:54:00,,0811.9,5.00,0.00,22.4,20.9,00.0,31.3,24.2,14.1,0000.0,0004.85,0008.28,0004.56
2023-01-15 12:55:00,,0811.9,5.01,0.00,22.4,20.8,00.0,31.3,24.2,14.1,0000.0,0004.69,0008.17,0004.37
2023-01-15 12:56:00,,0811.9,5.00,0.00,22.4,20.9,00.0,31.3,24.2,14.1,0000.0,0004.50,0007.89,0004.18
2023-01-15 12:57:00,,0811.9,5.01,0.00,22.4,20.8,00.0,31.3,24.2,14.1,0000.0,0004.28,0007.63,0003.97
2023-01-15 12:58:00,,0811.8,5.00,0.00,22.4,20.9,00.0,31.3,24.1,14.2,0000.0,0004.05,0007.40,0003.74
2023-01-15 12:59:00,,0811.7,4.99,0.00,22.4,20.9,00.0,31.3,24.1,14.5,0000.0,0003.79,0007.20,0003.47
